Mount Airy, NC

9:09 AM EST on December 08, 2019 (GMT -0500)
Mount Airy-Surry County

Weather History for KMWK - October, 2019

Change the Weather History Date:

Thursday, October 17, 2019

  Actual Average (KINT) Record (KINT)
Temperature  
Mean Temperature 53 °F -  
Max Temperature 62 °F 67 °F 83 °F (1984)
Min Temperature 43 °F 47 °F 29 °F (1978)
Degree Days  
Heating Degree Days 12    
Growing Degree Days 3 (Base 50)    
Moisture  
Dew Point 35 °F    
Average Humidity 53    
Maximum Humidity 84    
Minimum Humidity 34    
Precipitation  
Precipitation 0.00 in - - ()
Sea Level Pressure  
Sea Level Pressure 29.89 in    
Wind  
Wind Speed 8 mph ()    
Max Wind Speed 17 mph    
Max Gust Speed 26 mph    
Visibility 10.0 miles    
Events      
Averages and records for this station are not official NWS values.
T = Trace of Precipitation, MM = Missing Value Source: Averaged Metar Reports

Daily Weather History Graph

Daily Weather History Graph

Search for Another Location

Airport or City:

Astronomy

Oct. 17, 2019 Rise Set
Actual Time 7:30 AM EDT 6:43 PM EDT
Civil Twilight 7:04 AM EDT 7:09 PM EDT
Nautical Twilight 6:34 AM EDT 7:39 PM EDT
Astronomical Twilight 6:05 AM EDT 8:09 PM EDT
Moon 9:19 PM EDT (10/17) 10:56 AM EDT (10/17)
Length of Visible Light 12h 04m
Length of Day
11h 12m
Waning Gibbous, 87% of the Moon is Illuminated
Oct 17
Waning Gibbous
Oct 21
Last Quarter
Oct 27
New
Nov 4
First Quarter
Nov 12
Full

Hourly Weather History & Observations

Time (EDT) Temp. Dew Point Humidity Pressure Visibility Wind Dir Wind Speed Gust Speed Precip Events Conditions
12:15 AM 50.0 °F 36.0 °F 59% 29.87 in 10.0 mi WNW 11.5 mph 17.3 mph N/A   Overcast
12:35 AM 49.6 °F 34.9 °F 57% 29.85 in 10.0 mi WNW 12.7 mph 20.7 mph N/A   Scattered Clouds
12:55 AM 49.1 °F 35.2 °F 59% 29.85 in 10.0 mi WNW 10.4 mph - N/A   Scattered Clouds
1:15 AM 49.6 °F 35.2 °F 58% 29.86 in 10.0 mi WNW 9.2 mph 19.6 mph N/A   Mostly Cloudy
1:35 AM 49.6 °F 35.8 °F 59% 29.84 in 10.0 mi WNW 12.7 mph 24.2 mph N/A   Scattered Clouds
1:55 AM 49.5 °F 35.8 °F 59% 29.84 in 10.0 mi WNW 12.7 mph 18.4 mph N/A   Clear
2:15 AM 49.5 °F 35.8 °F 59% 29.85 in 10.0 mi WNW 9.2 mph 20.7 mph N/A   Scattered Clouds
2:35 AM 49.1 °F 35.6 °F 60% 29.83 in 10.0 mi NW 12.7 mph 18.4 mph N/A   Scattered Clouds
2:55 AM 49.1 °F 34.7 °F 58% 29.83 in 10.0 mi WNW 10.4 mph 19.6 mph N/A   Clear
3:15 AM 49.1 °F 34.3 °F 57% 29.85 in 10.0 mi WNW 3.5 mph - N/A   Clear
3:35 AM 48.2 °F 34.5 °F 59% 29.85 in 10.0 mi Calm Calm - N/A   Clear
3:55 AM 48.2 °F 34.9 °F 60% 29.85 in 10.0 mi Calm Calm - N/A   Mostly Cloudy
4:15 AM 48.6 °F 34.7 °F 59% 29.85 in 10.0 mi West 5.8 mph - N/A   Overcast
4:55 AM 49.1 °F 35.1 °F 58% 29.85 in 10.0 mi West 5.8 mph - N/A   Overcast
5:15 AM 48.4 °F 35.4 °F 61% 29.84 in 10.0 mi WNW 6.9 mph - N/A   Mostly Cloudy
5:35 AM 48.2 °F 35.6 °F 62% 29.83 in 10.0 mi WNW 4.6 mph - N/A   Scattered Clouds
5:55 AM 48.2 °F 35.6 °F 62% 29.83 in 10.0 mi WNW 5.8 mph - N/A   Scattered Clouds
6:35 AM 47.3 °F 35.8 °F 64% 29.83 in 10.0 mi WNW 3.5 mph - N/A   Clear
6:55 AM 47.8 °F 35.8 °F 63% 29.83 in 10.0 mi WNW 6.9 mph - N/A   Scattered Clouds
7:35 AM 47.5 °F 36.0 °F 64% 29.85 in 10.0 mi WNW 5.8 mph - N/A   Scattered Clouds
7:55 AM 48.0 °F 35.8 °F 63% 29.87 in 10.0 mi WNW 6.9 mph 24.2 mph N/A   Mostly Cloudy
8:15 AM 48.4 °F 36.0 °F 62% 29.87 in 10.0 mi WNW 8.1 mph 17.3 mph N/A   Scattered Clouds
8:35 AM 49.1 °F 36.3 °F 61% 29.87 in 10.0 mi WNW 10.4 mph - N/A   Clear
8:55 AM 49.8 °F 36.5 °F 60% 29.87 in 10.0 mi WNW 12.7 mph 18.4 mph N/A   Clear
9:15 AM 51.1 °F 36.0 °F 56% 29.88 in 10.0 mi WNW 11.5 mph 19.6 mph N/A   Clear
9:35 AM 52.2 °F 35.4 °F 53% 29.89 in 10.0 mi WNW 17.3 mph 25.3 mph N/A   Clear
9:55 AM 52.5 °F 34.9 °F 51% 29.90 in 10.0 mi NW 12.7 mph 26.5 mph N/A   Clear
10:15 AM 52.7 °F 34.3 °F 50% 29.90 in 10.0 mi WNW 17.3 mph 24.2 mph N/A   Clear
10:35 AM 53.6 °F 34.7 °F 49% 29.90 in 10.0 mi NW 8.1 mph 18.4 mph N/A   Clear
10:55 AM 54.3 °F 35.1 °F 48% 29.92 in 10.0 mi NW 10.4 mph 18.4 mph N/A   Clear
11:15 AM 54.1 °F 35.1 °F 49% 29.92 in 10.0 mi West 10.4 mph 17.3 mph N/A   Clear
11:35 AM 55.0 °F 35.4 °F 48% 29.92 in 10.0 mi WNW 10.4 mph 18.4 mph N/A   Clear
11:55 AM 56.5 °F 36.0 °F 46% 29.92 in 10.0 mi WNW 9.2 mph - N/A   Clear
12:15 PM 56.7 °F 35.2 °F 45% 29.92 in 10.0 mi West 9.2 mph 17.3 mph N/A   Clear
12:35 PM 57.6 °F 35.8 °F 44% 29.93 in 10.0 mi NW 11.5 mph 16.1 mph N/A   Clear
12:55 PM 57.7 °F 35.1 °F 43% 29.92 in 10.0 mi West 13.8 mph 18.4 mph N/A   Clear
1:15 PM 57.9 °F 34.3 °F 41% 29.91 in 10.0 mi WNW 9.2 mph 17.3 mph N/A   Clear
1:35 PM 59.4 °F 34.5 °F 39% 29.90 in 10.0 mi NW 13.8 mph 20.7 mph N/A   Clear
1:55 PM 60.1 °F 33.8 °F 37% 29.90 in 10.0 mi WNW 11.5 mph - N/A   Clear
2:15 PM 59.7 °F 33.8 °F 38% 29.90 in 10.0 mi NW 9.2 mph - N/A   Clear
2:35 PM 60.4 °F 34.5 °F 38% 29.88 in 10.0 mi WNW 11.5 mph 17.3 mph N/A   Clear
2:55 PM 60.4 °F 35.1 °F 39% 29.87 in 10.0 mi West 6.9 mph - N/A   Clear
3:15 PM 61.3 °F 34.5 °F 37% 29.87 in 10.0 mi West 5.8 mph - N/A   Clear
3:35 PM 61.3 °F 34.0 °F 36% 29.87 in 10.0 mi NW 10.4 mph - N/A   Clear
3:55 PM 61.2 °F 33.1 °F 35% 29.88 in 10.0 mi WNW 10.4 mph 16.1 mph N/A   Clear
4:15 PM 61.7 °F 32.7 °F 34% 29.88 in 10.0 mi WNW 9.2 mph - N/A   Clear
4:35 PM 62.2 °F 33.8 °F 35% 29.88 in 10.0 mi NW 8.1 mph - N/A   Clear
4:55 PM 61.7 °F 33.3 °F 34% 29.89 in 10.0 mi WNW 5.8 mph - N/A   Clear
5:15 PM 61.2 °F 32.7 °F 34% 29.88 in 10.0 mi NW 5.8 mph - N/A   Clear
5:35 PM 60.8 °F 33.3 °F 36% 29.88 in 10.0 mi WNW 5.8 mph - N/A   Clear
5:55 PM 60.1 °F 32.2 °F 35% 29.89 in 10.0 mi NW 6.9 mph - N/A   Clear
6:15 PM 59.0 °F 33.4 °F 38% 29.89 in 10.0 mi NW 3.5 mph - N/A   Clear
6:35 PM 57.6 °F 34.3 °F 42% 29.89 in 10.0 mi WNW 5.8 mph - N/A   Clear
6:55 PM 56.3 °F 34.9 °F 45% 29.90 in 10.0 mi NW 4.6 mph - N/A   Clear
7:15 PM 56.1 °F 34.9 °F 45% 29.91 in 10.0 mi NW 6.9 mph - N/A   Clear
7:35 PM 55.9 °F 35.1 °F 45% 29.92 in 10.0 mi WNW 4.6 mph - N/A   Clear
7:55 PM 55.4 °F 35.4 °F 47% 29.92 in 10.0 mi WNW 3.5 mph - N/A   Clear
8:15 PM 54.7 °F 35.8 °F 49% 29.94 in 10.0 mi NW 3.5 mph - N/A   Clear
8:35 PM 53.8 °F 36.1 °F 51% 29.95 in 10.0 mi Calm Calm - N/A   Clear
8:55 PM 53.1 °F 36.7 °F 54% 29.95 in 10.0 mi Calm Calm - N/A   Clear
9:15 PM 52.2 °F 37.4 °F 57% 29.96 in 10.0 mi Calm Calm - N/A   Clear
9:35 PM 49.6 °F 39.4 °F 68% 29.97 in 10.0 mi Calm Calm - N/A   Clear
9:55 PM 49.1 °F 39.2 °F 69% 29.97 in 10.0 mi Calm Calm - N/A   Clear
10:15 PM 49.8 °F 37.9 °F 64% 29.97 in 10.0 mi Calm Calm - N/A   Clear
10:35 PM 47.1 °F 39.0 °F 73% 29.97 in 10.0 mi Calm Calm - N/A   Clear
10:55 PM 46.6 °F 39.0 °F 75% 29.98 in 10.0 mi Calm Calm - N/A   Clear
11:15 PM 47.1 °F 39.4 °F 74% 29.98 in 10.0 mi Calm Calm - N/A   Clear
11:35 PM 44.6 °F 40.1 °F 84% 29.98 in 10.0 mi Calm Calm - N/A   Clear
11:55 PM 43.7 °F 39.2 °F 84% 29.97 in 10.0 mi Calm Calm - N/A   Clear